Flag for Germany Weather past 2 weeks in Bergisch Gladbach, North Rhine-Westphalia, Germany

Now
72 °F

Scattered clouds.


Feels Like: 74 °F
Forecast: 58 / 72 °F
Wind: 2 mph from Southeast

Location: Koeln / Bonn

Current Time: Sep 19, 2014 at 12:00:11 PM

Latest Report: Sep 19, 2014 at 11:20 AM


Visibility: N/A

Pressure: 29.89 "Hg

Humidity: 73%

Dew point: 63 °F

Location of Bergisch GladbachLocation

Historic Weather in Bergisch Gladbach — Graph

°F

Bergisch Gladbach temperature yesterday

Maximum temperature yesterday: 73 °F (at 3:50 PM)
Minimum temperature yesterday: 59 °F (at 5:20 AM)
Average temperature yesterday: 66 °F

Past Weeks' High & Low Weather Summary

 TemperatureHumidityPressure
High77 °F (Sep 5, 3:50 PM)100% (Sep 6, 8:20 AM)30.24 "Hg (Sep 6, 8:20 AM)
Low45 °F (Sep 12, 3:20 AM)44% (Sep 17, 4:20 PM)29.83 "Hg (Sep 18, 3:50 PM)
Average62 °F80%30.02 "Hg
* Reported Sep 4 10:20 AM — Sep 19 10:50 AM, Bergisch Gladbach, Weather by CustomWeather, © 2014

Note: Actual official high and low records may vary slightly from our data, if they occured in-between our weather recording intervals... More about our weather records

Advertising

Bergisch Gladbach weather history for previous 24 hours

 ConditionsComfort  
Time TempWeatherWind HumidityBarometerVisibility
10:50 AM
Sep 19
72 °FSunny.3 mph78%29.89 "Hg10 mi
10:20 AM68 °FPartly sunny.5 mph78%29.89 "HgN/A
9:50 AM66 °FBroken clouds.6 mph88%29.89 "HgN/A
9:20 AM66 °FBroken clouds.3 mph83%29.89 "HgN/A
8:50 AM63 °FBroken clouds.3 mph94%29.86 "HgN/A
8:20 AM63 °FSunny.3 mph94%29.86 "Hg10 mi
7:50 AM63 °FPassing clouds.5 mph94%29.86 "HgN/A
7:20 AM63 °FPassing clouds.2 mph94%29.86 "HgN/A
6:50 AM63 °FPassing clouds.3 mph94%29.83 "HgN/A
6:20 AM63 °FSprinkles. Passing clouds.3 mph94%29.83 "HgN/A
5:50 AM61 °FFog.2 mph94%29.83 "HgN/A
5:20 AM61 °FClear.3 mph88%29.83 "Hg10 mi
4:50 AM63 °FClear.2 mph88%29.83 "Hg10 mi
4:20 AM64 °FClear.3 mph88%29.83 "Hg10 mi
3:50 AM64 °FClear.3 mph88%29.83 "Hg10 mi
3:20 AM64 °FClear.6 mph88%29.83 "Hg10 mi
2:50 AM63 °FClear.3 mph94%29.83 "Hg10 mi
2:20 AM63 °FClear.3 mph88%29.86 "Hg10 mi
1:50 AM63 °FFog.2 mph94%29.86 "HgN/A
1:20 AM66 °FFog.2 mph83%29.86 "HgN/A
12:50 AM66 °FClear.3 mph83%29.86 "Hg10 mi
12:20 AM66 °FClear.7 mph83%29.86 "Hg10 mi
11:50 PM
Sep 18
68 °FPassing clouds.8 mph78%29.86 "HgN/A
11:20 PM66 °FClear.7 mph83%29.86 "Hg10 mi
10:50 PM66 °FClear.7 mph83%29.86 "Hg10 mi
10:20 PM68 °FClear.6 mph78%29.86 "Hg10 mi
9:50 PM68 °FClear.8 mph78%29.86 "Hg10 mi
9:20 PM68 °FClear.7 mph78%29.86 "Hg10 mi
8:50 PM68 °FClear.9 mph78%29.83 "Hg10 mi
8:20 PM68 °FScattered clouds.6 mph78%29.83 "HgN/A
7:50 PM70 °FPassing clouds.7 mph73%29.83 "HgN/A
7:20 PM70 °FScattered clouds.6 mph73%29.83 "HgN/A
6:50 PM72 °FScattered clouds.6 mph69%29.83 "HgN/A
6:20 PM72 °FSunny.7 mph69%29.83 "Hg10 mi
5:50 PM72 °FSunny.8 mph69%29.83 "Hg10 mi
5:20 PM72 °FSunny.7 mph69%29.83 "Hg10 mi
4:50 PM72 °FScattered clouds.7 mph65%29.83 "HgN/A
4:20 PM72 °FBroken clouds.7 mph69%29.83 "HgN/A
3:50 PM73 °FBroken clouds.8 mph61%29.83 "HgN/A
3:20 PM72 °FPartly sunny.9 mph69%29.86 "HgN/A
2:50 PM72 °FBroken clouds.8 mph69%29.86 "HgN/A
2:20 PM70 °FLight rain. Partly sunny.7 mph78%29.86 "HgN/A
1:50 PM70 °FLight rain. Partly sunny.10 mph73%29.86 "HgN/A
1:20 PM70 °FLight rain. Clear.12 mph73%29.86 "HgN/A
12:50 PM70 °FLight rain. Partly sunny.7 mph78%29.86 "HgN/A
12:20 PM68 °FPartly sunny.7 mph78%29.86 "HgN/A
Weather by CustomWeather, © 2014

See weather overviewHow to use our weather pages